Regional Weather Roundup
Issued by NWS

Home | Current Version | Previous Version | Text Only | Print | Product List | Glossary Off
Versions: 1 2 3 4 5 6 7 8 9 10 11 12 13 14 15 16 17 18 19 20 21 22 23 24 25 26 27 28 29 30 31 32 33 34 35 36 37 38 39 40 41 42 43 44 45 46 47 48 49 50

000
ASUS43 KOAX 282102
RWRNE

WEATHER ROUNDUP FOR NEBRASKA
NATIONAL WEATHER SERVICE OMAHA NE
400 PM CDT FRI AUG 28 2015

NOTES: SATELLITE DATA IS BEING USED TO AUGMENT CLOUD COVER ABOVE
       12000 FEET.
       "FAIR" INDICATES FEW OR NO CLOUDS BELOW 12,000 FEET WITH NO
       SIGNIFICANT WEATHER AND/OR OBSTRUCTIONS TO VISIBILITY.

  * THESE STATIONS DO NOT REPORT WEATHER SUCH AS RAIN...SNOW OR FOG.

NEZ001>004-019>022-054>056-282200-
NEBRASKA PANHANDLE

CITY           SKY/WX    TMP DP  RH WIND       PRES   REMARKS
SCOTTSBLUFF    SUNNY     89  41  18 N10       30.09F
ALLIANCE       SUNNY     88  46  23 N14G21    30.09S
CHADRON        SUNNY     90  48  23 VRB3      30.05F HAZE
KIMBALL        SUNNY     83  42  24 N16G22    30.16S
SIDNEY         SUNNY     87  44  22 N12       30.12F
$$

NEZ057>060-069>072-079>082-282200-
SOUTHWEST NEBRASKA

CITY           SKY/WX    TMP DP  RH WIND       PRES   REMARKS
NORTH PLATTE   MOSUNNY   82  62  50 N14       30.01S
IMPERIAL       SUNNY     89  53  29 N13       30.03S
MCCOOK         MOSUNNY   87  60  40 N12G21    29.99S
$$

NEZ005>010-023>029-035>040-094-282200-
NORTH CENTRAL NEBRASKA

CITY           SKY/WX    TMP DP  RH WIND       PRES   REMARKS
VALENTINE      SUNNY     81  60  48 N9        30.02F
AINSWORTH      MOSUNNY   76  63  64 NE7       30.03S
BROKEN BOW     CLOUDY    77  62  59 N9        30.00S
O`NEILL        PTSUNNY   75  65  70 N10       29.98F
ORD            CLOUDY    75  61  61 N13       29.97S
$$

NEZ041-046>049-061>064-073>077-083>087-282200-
SOUTH CENTRAL NEBRASKA

CITY           SKY/WX    TMP DP  RH WIND       PRES   REMARKS
GRAND ISLAND   CLOUDY    77  61  57 N18       29.96R
AURORA         CLOUDY    71  65  81 N10       29.95S
HASTINGS       CLOUDY    77  62  59 N14       29.95S
KEARNEY *      PTSUNNY   79  61  53 N17       29.97S
YORK           CLOUDY    72  64  78 NW13      29.93R
$$

NEZ011>018-030>034-042>045-282200-
NORTHEAST NEBRASKA

CITY           SKY/WX    TMP DP  RH WIND       PRES   REMARKS
NORFOLK        CLOUDY    73  64  73 N16       29.91S
BLAIR          CLOUDY    71  65  79 NW8       29.87R
COLUMBUS *     CLOUDY   N/A N/A N/A N8G16     29.92R
FREMONT        CLOUDY    72  64  75 NW13      29.89R
TEKAMAH        CLOUDY    73  66  78 NW12      29.85S
$$

NEZ050>053-065>068-078-088>093-282200-
SOUTHEAST NEBRASKA

CITY           SKY/WX    TMP DP  RH WIND       PRES   REMARKS
LINCOLN        CLOUDY    77  66  68 NW18      29.88S
OMAHA EPPLEY   CLOUDY    75  68  78 NW10      29.85R
FALLS CITY     RAIN      77  71  82 W10       29.85R
$$

NEZ044-045-051>053-067-282200-
OMAHA AREA

CITY           SKY/WX    TMP DP  RH WIND       PRES   REMARKS
OMAHA EPPLEY   CLOUDY    75  68  78 NW10      29.85R
BLAIR          CLOUDY    71  65  79 NW8       29.87R
FREMONT        CLOUDY    72  64  75 NW13      29.89R
OFFUTT AFB     PTSUNNY   76  69  78 NW17      29.84R
WAHOO          CLOUDY    71  65  82 NW10      29.88R
$$



USA.gov is the U.S. government's official web portal to all federal, state and local government web resources and services.